Zurück zum Katalog

QIANFAN-65

AktivKommunikationPO
NORAD 62795·PAYLOAD·🇨🇳 China

Gestartet Jan 23, 2025 von Taiyuan Satellite Launch Center

Loading…

Nächste Überflüge (nächste 24 Stunden)

TLE

AktuellSource: Space-Track

Epoche: Sep 14, 2026, 12:58 UTC

1 62795U 25016L   26257.54085694  .00000026  00000-0  22269-4 0  9999
2 62795  88.9652  74.3796 0012070 266.0869  93.8902 13.51023379 84481

Verfolge QIANFAN-65 in Echtzeit mit AllMySat

Download on the App Store